Lid_Strength_Index
5 5 4 5 6 7 5 3 6 2 2 6 6 7 6 9 5 5 6 6 6 6 6 7 7 7 6 4 4 6 5 7 9 8 5 5 6 7 7 10 10 9 10 11
4 4 4 5 6 6 4 5 4 2 3 8 7 6 7 6 6 6 5 7 6 5 6 8 6 6 5 4 5 5 5 7 10 10 7 6 7 6 6 7 7 11 12 12
3 4 4 5 5 5 4 4 6 4 3 3 6 6 7 7 6 6 5 6 5 6 6 5 7 6 5 4 4 3 4 7 8 11 10 8 8 7 6 7 9 9 9 10
3 3 3 4 5 5 4 3 5 4 7 5 5 5 6 7 7 5 5 6 6 6 8 7 7 6 5 5 4 4 5 8 7 7 7 7 7 7 7 8 7 9 8 8
3 3 3 4 5 6 3 5 5 4 5 5 6 7 7 7 6 6 7 7 6 5 7 6 7 6 6 6 5 5 5 8 7 8 7 7 8 7 7 7 7 7 7 8
4 4 3 4 5 5 3 3 3 4 6 5 6 6 6 6 5 5 5 5 6 7 6 4 4 4 4 5 6 6 6 7 8 11 8 8 9 7 7 7 6 6 8 6
4 4 3 3 4 5 3 3 4 6 7 6 6 6 6 6 6 6 5 4 6 4 3 3 4 4 4 5 5 5 7 7 8 10 9 13 8 5 6 6 6 5 6 6
4 4 3 3 4 4 4 3 4 6 7 6 6 6 6 5 5 6 5 4 3 2 4 6 8 8 7 6 5 5 5 7 9 12 11 10 9 7 6 7 7 5 5 5
5 4 3 3 3 4 3 4 2 4 7 5 5 6 5 7 6 6 5 3 2 3 5 7 11 12 9 9 7 5 5 5 8 10 12 15 9 5 4 5 9 4 4 5
5 4 3 3 3 4 3 3 1 3 6 5 5 6 6 4 5 6 5 5 5 3 7 9 10 10 7 11 10 9 8 8 10 10 12 10 6 5 4 10 8 4 4 4
4 4 3 3 3 3 3 2 1 3 6 4 4 3 4 4 5 7 5 6 5 6 9 9 9 9 8 9 8 9 9 10 10 9 11 12 4 5 8 5 4 4 4 4
4 4 4 3 3 2 2 4 1 1 5 4 2 2 1 2 2 4 4 5 6 6 8 8 9 12 9 9 12 6 11 8 9 8 8 5 4 4 3 3 3 4 3 3
4 4 3 3 2 2 2 3 3 4 5 4 3 4 1 -0 1 1 5 4 3 5 4 6 8 11 9 12 10 9 6 5 8 7 6 5 4 3 3 3 3 3 3 3
4 3 3 2 2 3 3 3 2 3 5 8 5 1 2 0 0 1 1 2 2 3 4 6 7 9 6 11 11 10 9 7 7 7 5 4 4 3 3 3 3 3 3 3
3 3 3 3 2 2 2 2 2 0 5 8 6 3 1 1 1 2 2 2 3 4 6 7 8 6 7 7 7 9 6 8 8 8 6 5 4 3 3 3 3 3 3 3
3 3 3 2 2 2 3 4 1 2 2 7 9 2 2 2 2 2 2 3 3 4 6 6 5 5 6 10 10 6 6 5 4 6 4 4 3 3 3 3 3 3 3 3
3 3 3 3 2 2 4 5 3 2 2 7 8 6 3 2 3 3 3 2 3 4 6 6 6 6 6 9 12 7 5 5 4 3 4 5 4 4 3 3 2 3 2 2
3 3 3 2 2 3 3 1 3 1 3 6 8 7 5 2 6 7 4 5 4 5 6 5 6 6 8 11 7 5 5 5 4 4 3 3 3 3 3 3 3 3 3 3
3 3 3 2 3 4 2 1 2 2 4 8 8 9 10 3 5 6 5 5 8 4 7 7 6 8 12 7 6 5 5 5 5 4 3 3 4 4 3 3 3 3 3 3
3 3 4 6 2 1 -0 2 5 6 6 7 8 5 8 5 6 7 7 6 9 10 7 5 8 8 5 5 5 4 4 4 4 5 5 4 4 4 4 3 3 3 3 2
2 4 5 1 1 1 4 7 8 7 9 6 6 6 8 4 8 8 7 9 9 13 9 9 10 9 6 4 4 4 3 3 3 3 3 3 3 3 3 3 2 2 2 2
4 4 2 2 3 5 8 9 7 8 9 6 7 7 6 6 4 7 8 10 10 13 8 10 11 8 4 4 4 4 3 3 3 3 3 3 2 2 2 3 3 2 2 2
2 4 5 5 5 11 12 12 10 10 8 6 7 8 6 6 5 7 9 12 11 8 11 11 11 8 5 4 4 4 3 3 3 3 2 2 2 2 2 3 3 2 2 1
5 7 12 8 10 8 8 8 9 7 6 6 6 7 8 6 8 8 12 10 10 13 14 13 10 6 5 4 3 3 3 3 3 3 3 3 2 3 2 2 2 2 2 2
6 6 11 8 6 5 6 5 6 6 5 5 7 8 7 8 9 8 9 11 13 12 13 10 7 5 5 5 4 3 3 3 3 3 3 3 3 3 2 2 2 1 1 2
4 5 7 5 7 7 5 5 7 4 5 4 6 9 10 10 8 10 11 11 14 12 9 7 5 6 5 5 4 3 3 3 2 2 2 2 2 2 2 2 1 2 2 2
6 7 4 5 5 6 5 5 5 3 5 8 8 11 11 8 10 10 8 11 10 8 7 5 4 6 5 4 4 3 3 3 2 2 2 2 1 1 2 2 2 1 1 1